SCP
0 0 -0 0 0 0 0 0 0 0 0 0 0 0 0 0 0 0 0 0 0 0 0 1 1 1 1 1 1 1 1 0 1 0 0 0 0 0 0 0 0 0 0
0 0 0 0 0 0 0 0 0 0 0 0 0 0 0 0 0 0 0 0 0 0 1 1 1 1 1 1 1 1 0 0 0 0 0 0 0 0 0 0 0 0 0
0 0 0 0 0 0 0 0 0 0 0 0 0 0 0 0 0 0 0 0 0 0 0 1 1 1 1 1 0 -0 -0 0 0 0 0 0 0 0 0 0 0 0 0
0 0 0 0 0 0 0 0 0 0 0 0 0 0 0 0 0 0 0 0 0 0 0 0 0 1 2 1 0 0 0 0 0 0 0 0 0 0 0 0 0 0 0
0 1 1 0 0 0 0 0 0 0 0 0 0 0 0 0 0 0 0 0 0 0 0 0 0 0 0 0 1 0 0 0 0 0 0 0 0 1 1 0 0 0 0
1 1 0 0 0 0 0 0 0 0 0 0 0 0 0 0 0 0 0 0 0 0 0 0 0 0 0 0 0 0 0 1 1 0 0 0 1 1 1 1 1 0 0
1 0 0 0 0 0 0 0 0 0 0 0 0 0 0 0 0 0 0 0 0 0 0 0 0 0 0 0 0 0 1 1 1 1 1 1 1 0 0 0 1 0 0
0 0 0 0 0 0 0 0 0 0 0 0 0 0 0 0 0 0 0 0 0 0 0 0 0 0 0 0 0 0 0 0 1 1 1 1 1 1 1 1 -0 0 0
0 0 0 0 0 0 0 0 0 0 -0 0 0 -0 0 0 0 0 0 0 0 -0 0 0 0 0 0 0 0 0 0 0 0 1 1 1 1 1 1 1 1 1 0
0 0 0 0 0 0 0 0 0 0 0 -0 -0 0 0 0 0 0 0 0 0 -0 0 0 0 0 0 0 0 0 0 0 0 0 0 0 1 1 1 1 1 1 1
0 0 0 0 0 0 0 0 0 0 0 0 0 0 0 0 0 0 0 0 0 0 0 0 0 0 0 0 0 0 0 0 0 0 0 0 0 0 1 1 1 1 2
0 0 0 0 0 0 0 0 0 0 0 0 0 0 0 0 0 0 0 0 0 0 0 0 0 0 0 0 0 0 0 0 0 0 0 0 0 0 0 0 1 1 1
0 0 0 0 0 0 0 0 0 0 0 0 0 0 0 0 0 0 0 0 0 0 0 0 0 0 0 0 0 0 0 0 0 0 0 0 0 0 0 0 0 0 0
0 0 0 0 0 0 0 0 0 0 0 0 0 0 0 0 0 0 0 0 0 0 0 0 0 0 0 0 0 0 0 0 0 0 0 0 0 0 0 0 0 0 0
0 0 0 0 0 0 0 0 0 0 0 0 0 0 0 0 0 0 0 0 0 0 0 0 0 0 0 0 0 0 0 0 0 0 0 0 0 0 0 0 0 0 0
0 0 0 0 0 0 0 0 0 0 0 0 0 0 0 0 0 0 0 0 0 0 0 0 0 0 0 0 0 0 0 0 0 0 0 0 0 0 0 0 0 0 0
0 0 0 0 0 0 0 0 0 0 0 0 0 0 0 0 0 0 0 0 0 0 0 0 0 0 0 0 0 0 0 0 0 0 0 0 0 0 0 0 0 0 0
0 0 0 0 0 0 0 0 0 0 0 0 0 0 0 0 0 0 0 0 0 0 0 0 0 0 0 0 0 0 0 0 0 0 0 0 0 0 0 0 0 0 0
0 0 0 0 0 0 0 0 0 0 0 0 0 0 0 0 0 0 0 0 0 0 0 0 0 0 0 0 0 0 0 0 0 0 0 0 0 0 0 0 0 0 0
0 0 0 0 0 0 0 0 0 0 0 0 0 0 0 0 0 0 0 0 0 0 0 0 0 0 0 0 0 0 0 0 0 0 0 0 0 0 0 0 0 0 0
0 0 0 0 0 0 0 0 0 0 0 0 0 0 0 0 0 0 0 0 0 0 0 0 0 0 0 0 0 0 0 0 0 0 0 0 0 0 0 0 0 0 0
0 0 0 0 0 0 0 0 0 0 0 0 0 0 0 0 0 0 0 0 0 0 0 0 0 0 0 0 0 0 0 0 0 0 0 0 0 0 0 0 0 0 0
0 0 0 0 0 0 0 0 0 0 0 0 0 0 0 0 0 0 0 0 0 0 0 0 0 0 0 0 0 0 0 0 0 0 0 0 0 0 0 0 0 0 0
0 0 0 0 0 0 0 0 0 0 0 0 0 0 0 0 0 0 0 0 0 0 0 0 0 0 0 0 0 0 0 0 0 0 0 0 0 0 0 0 0 0 0
0 0 0 0 0 0 0 0 0 0 0 0 0 0 0 0 0 0 0 0 0 0 0 0 0 0 0 0 0 0 0 0 0 0 0 0 0 0 0 0 0 0 0
0 0 0 0 0 0 0 0 0 0 0 0 0 0 0 0 0 0 0 0 0 0 0 0 0 0 0 0 0 0 0 0 0 0 0 0 0 0 0 0 0 0 0
Wind_Speed_500mb
23 21 15 10 5 7 10 10 15 18 25 31 37 41 46 49 38 45 45 43 45 49 50 48 47 45 51 47 48 49 57 56 46 45 45 41 44 41 39 40 37 37 38
23 18 12 7 9 12 11 11 20 26 29 35 39 42 42 46 47 43 48 49 53 55 55 52 46 46 51 47 49 51 37 42 45 55 48 47 45 38 43 42 37 37 38
24 12 11 14 17 18 13 17 20 27 35 39 46 48 50 47 49 49 50 50 51 51 51 51 47 44 46 42 46 24 35 36 38 41 46 47 41 42 43 39 36 37 38
22 17 17 19 25 23 17 22 28 38 44 47 48 46 45 43 44 40 36 35 35 35 35 35 34 31 24 28 24 39 44 41 43 37 37 39 35 38 41 40 38 37 36
22 22 23 23 21 21 28 32 34 35 38 39 42 44 43 44 42 37 37 34 33 33 35 35 36 30 24 26 33 42 45 44 44 39 41 35 34 34 31 34 42 40 38
26 24 21 18 17 20 25 27 26 25 32 41 46 47 43 41 32 35 33 36 38 37 37 37 34 29 24 23 28 34 38 40 41 38 41 43 39 41 44 47 47 44 41
29 30 24 22 23 23 20 13 18 27 37 46 52 52 42 26 24 31 32 39 33 41 39 37 34 34 29 25 25 26 32 36 39 42 42 40 42 45 51 46 44 45 48
36 28 24 24 23 12 9 13 22 31 40 46 46 41 31 40 18 38 26 39 53 44 51 45 40 34 37 32 26 24 26 29 31 37 41 41 35 37 35 34 39 42 47
39 27 23 16 7 5 10 20 27 34 40 42 42 33 17 20 73 29 53 47 36 67 59 49 37 30 30 24 24 24 23 24 26 29 34 42 41 37 36 36 35 36 44
21 18 18 11 3 5 13 22 30 36 40 42 40 34 30 35 23 38 53 58 70 72 61 53 34 26 30 27 23 19 18 20 23 29 31 35 38 40 38 39 43 49 48
18 20 14 7 2 11 18 24 33 39 44 44 44 46 48 50 38 42 57 77 79 65 63 47 31 36 37 40 37 33 27 23 26 27 28 28 31 32 37 40 41 43 51
29 23 12 2 6 13 20 30 39 44 46 47 46 46 50 47 46 48 63 71 67 71 55 41 52 42 38 47 47 42 44 33 33 28 27 28 30 29 30 33 35 38 47
31 21 9 6 12 17 27 34 40 47 50 52 52 51 49 45 47 51 51 58 64 52 36 56 50 45 61 52 46 43 37 37 41 38 32 30 30 29 29 27 32 31 42
27 17 11 12 16 21 29 36 44 51 54 54 53 51 48 43 42 45 47 50 56 40 38 53 48 59 59 64 54 41 34 29 28 34 39 38 35 31 28 31 30 34 37
24 19 14 15 19 26 34 42 50 54 55 53 52 47 46 44 43 41 36 37 39 41 48 32 62 64 62 59 51 40 30 23 20 27 32 33 36 36 30 27 30 29 31
26 19 15 18 27 32 40 46 52 51 51 49 48 45 44 41 34 31 32 32 37 45 36 59 60 57 53 57 54 49 34 27 22 26 29 32 31 31 31 29 27 30 22
26 20 18 26 31 37 44 50 49 49 48 47 45 43 36 31 29 32 35 37 34 38 47 51 48 53 54 53 53 50 44 31 33 32 33 33 35 29 29 30 29 32 24
21 21 24 29 36 44 47 47 47 49 50 42 37 33 29 29 31 34 31 29 37 30 44 56 59 56 52 44 49 53 48 43 40 35 32 36 38 36 29 29 29 35 43
21 22 29 35 41 42 42 46 49 44 37 37 32 29 26 29 29 33 28 32 32 39 47 59 67 65 66 58 54 50 50 45 43 41 38 32 36 37 36 28 28 35 39
23 29 36 39 40 41 43 43 39 32 33 32 26 25 25 24 27 26 27 34 39 47 54 58 63 67 66 60 55 56 60 47 48 45 43 32 32 36 38 34 28 30 43
29 34 39 39 39 35 32 36 32 32 34 30 28 28 27 22 18 19 29 33 42 49 53 57 68 71 72 67 59 53 55 58 55 48 49 49 48 38 37 39 38 34 39
32 36 35 30 26 25 25 32 29 33 36 33 30 30 27 22 25 24 28 34 42 47 53 60 66 68 67 61 57 54 54 55 62 56 61 65 59 40 32 35 42 42 42
25 25 23 22 20 22 24 23 29 36 38 36 32 32 32 25 22 28 31 32 36 47 57 59 60 61 62 54 49 50 48 50 58 61 57 64 52 40 29 26 32 40 41
20 21 20 17 18 18 23 27 33 37 39 32 32 31 33 27 25 29 37 36 41 51 62 65 57 53 49 47 42 45 49 54 56 52 37 48 40 34 21 15 21 28 35
20 18 17 17 14 19 25 32 39 37 32 30 26 25 27 25 22 31 37 40 50 59 63 67 55 49 44 38 31 34 40 41 44 46 36 30 20 25 16 21 7 9 11
12 13 11 16 19 27 32 36 39 37 36 31 24 22 22 22 24 29 37 44 55 64 71 69 67 56 47 41 35 27 27 30 33 30 9 16 22 24 14 8 10 11 9
Wind_Direction_500mb
188 194 197 209 229 290 274 279 291 299 310 314 314 311 309 303 311 301 305 304 305 306 307 306 301 298 297 291 307 309 309 308 287 279 272 273 265 260 260 262 258 259 257
195 197 205 230 266 273 270 294 306 306 303 307 305 302 305 306 303 302 301 306 303 303 304 310 308 301 297 302 294 309 293 299 297 277 279 268 262 263 262 264 259 257 255
199 205 233 251 264 271 287 298 295 290 296 296 299 303 308 312 307 307 308 306 304 303 302 304 307 311 300 303 313 298 283 302 302 293 278 269 263 260 260 258 257 253 252
195 210 232 256 259 257 261 291 287 289 296 303 309 314 319 316 311 311 312 311 314 316 313 314 317 317 322 314 294 291 292 296 299 288 286 276 268 267 265 260 260 256 248
206 223 233 245 251 255 270 284 290 298 307 312 316 320 319 310 305 305 306 307 317 318 320 324 324 322 314 291 285 290 290 286 295 285 278 272 263 264 262 263 259 253 248
219 223 224 241 258 276 282 293 302 314 322 325 326 325 321 309 301 311 319 316 319 319 315 312 319 323 311 293 282 272 277 283 286 283 283 275 265 258 259 274 263 248 242
227 226 238 254 268 285 288 301 326 335 334 337 333 332 334 323 313 325 323 330 329 335 336 333 321 311 313 305 298 277 270 270 276 282 277 279 278 268 261 266 256 244 241
234 231 245 258 266 269 292 323 339 347 349 345 345 342 335 336 308 334 325 324 334 336 335 333 330 317 313 322 322 318 296 284 284 275 278 279 280 275 263 260 255 248 247
234 234 243 227 216 282 327 347 345 352 355 354 353 3 344 331 332 318 332 330 327 338 340 339 337 331 321 338 331 313 328 311 295 278 277 278 273 268 259 253 250 251 250
213 220 186 175 177 327 349 348 347 351 352 353 354 351 345 335 325 320 319 333 327 337 342 346 347 335 324 309 323 329 318 322 320 302 295 279 271 264 265 267 264 255 244
198 177 173 146 17 345 349 345 345 348 351 351 346 341 336 333 332 318 317 321 324 333 336 340 340 327 320 316 308 305 310 309 312 315 314 298 278 272 267 268 270 269 259
173 176 165 158 307 326 342 344 342 343 344 342 337 334 330 330 324 321 314 318 322 330 334 336 337 328 320 317 317 310 293 298 300 303 309 309 300 284 271 266 261 265 263
177 177 176 243 292 328 343 339 337 335 334 332 327 325 324 319 316 315 313 319 321 334 336 326 329 321 322 324 324 321 308 291 290 292 291 297 303 298 281 269 258 263 260
187 188 211 251 305 331 330 331 330 328 324 322 317 317 317 321 319 312 314 324 332 325 325 332 319 330 334 331 329 320 319 314 296 283 279 281 287 296 294 277 265 263 259
192 208 235 281 307 318 325 325 323 318 316 317 316 320 320 319 315 311 316 323 337 326 331 319 326 328 334 339 338 325 321 317 305 287 277 282 279 279 282 276 263 256 255
203 221 251 288 306 315 318 317 313 313 316 318 317 320 319 315 316 316 323 328 324 323 323 319 326 330 343 346 347 345 327 301 293 282 277 277 279 283 279 268 262 247 253
207 234 267 290 305 311 313 314 316 317 320 319 319 319 316 316 321 329 324 317 317 321 316 323 334 337 341 339 344 345 345 331 300 285 279 281 276 282 291 268 255 247 230
220 252 285 303 308 311 314 316 317 320 319 317 318 317 318 316 328 321 329 331 327 336 331 327 329 332 333 339 341 341 339 342 336 319 294 279 275 271 277 285 258 245 242
244 278 299 305 309 316 316 316 318 321 317 320 318 317 319 328 330 324 326 331 336 328 324 325 328 334 333 334 335 333 335 334 333 335 324 294 281 273 265 267 271 253 238
280 296 307 310 315 313 313 314 318 315 324 326 318 315 322 315 320 321 328 330 326 322 328 329 330 331 328 334 332 332 328 330 329 332 328 323 301 285 271 256 256 254 245
296 308 306 311 309 310 310 308 315 323 331 324 316 319 309 301 300 312 318 320 322 323 327 328 326 324 325 327 324 325 321 322 322 329 332 332 326 300 275 257 245 243 244
302 304 302 307 303 304 300 306 321 325 332 332 322 311 318 311 301 310 311 316 323 326 327 326 323 324 325 323 322 318 315 317 318 321 321 320 327 316 296 265 247 239 241
299 301 311 302 288 293 302 313 314 323 332 332 318 314 323 309 293 301 313 319 326 333 332 332 327 324 319 320 317 310 307 306 302 306 312 310 325 323 307 271 247 242 232
307 310 305 293 297 302 298 310 310 322 324 322 319 317 320 305 290 298 315 327 336 340 342 339 331 325 319 316 306 300 298 296 299 303 313 303 332 339 342 289 249 232 230
310 317 319 324 314 301 303 311 316 321 333 342 327 317 311 302 294 307 323 329 336 342 344 341 335 330 325 321 310 303 303 305 305 307 314 298 338 342 11 55 69 205 220
341 336 317 310 311 309 317 321 320 332 336 337 328 315 318 299 296 319 331 335 335 341 343 339 341 332 331 328 322 310 307 305 302 306 306 307 316 329 329 1 73 95 173
Wind_Speed_850mb
23 21 15 10 5 7 10 10 15 18 25 31 37 41 46 49 38 45 45 43 45 49 50 48 47 45 51 47 48 49 57 56 46 45 45 41 44 41 39 40 37 37 38
23 18 12 7 9 12 11 11 20 26 29 35 39 42 42 46 47 43 48 49 53 55 55 52 46 46 51 47 49 51 37 42 45 55 48 47 45 38 43 42 37 37 38
24 12 11 14 17 18 13 17 20 27 35 39 46 48 50 47 49 49 50 50 51 51 51 51 47 44 46 42 46 24 35 36 38 41 46 47 41 42 43 39 36 37 38
22 17 17 19 25 23 17 22 28 38 44 47 48 46 45 43 44 40 36 35 35 35 35 35 34 31 24 28 24 39 44 41 43 37 37 39 35 38 41 40 38 37 36
22 22 23 23 21 21 28 32 34 35 38 39 42 44 43 44 42 37 37 34 33 33 35 35 36 30 24 26 33 42 45 44 44 39 41 35 34 34 31 34 42 40 38
26 24 21 18 17 20 25 27 26 25 32 41 46 47 43 41 32 35 33 36 38 37 37 37 34 29 24 23 28 34 38 40 41 38 41 43 39 41 44 47 47 44 41
29 30 24 22 23 23 20 13 18 27 37 46 52 52 42 26 24 31 32 39 33 41 39 37 34 34 29 25 25 26 32 36 39 42 42 40 42 45 51 46 44 45 48
36 28 24 24 23 12 9 13 22 31 40 46 46 41 31 40 18 38 26 39 53 44 51 45 40 34 37 32 26 24 26 29 31 37 41 41 35 37 35 34 39 42 47
39 27 23 16 7 5 10 20 27 34 40 42 42 33 17 20 73 29 53 47 36 67 59 49 37 30 30 24 24 24 23 24 26 29 34 42 41 37 36 36 35 36 44
21 18 18 11 3 5 13 22 30 36 40 42 40 34 30 35 23 38 53 58 70 72 61 53 34 26 30 27 23 19 18 20 23 29 31 35 38 40 38 39 43 49 48
18 20 14 7 2 11 18 24 33 39 44 44 44 46 48 50 38 42 57 77 79 65 63 47 31 36 37 40 37 33 27 23 26 27 28 28 31 32 37 40 41 43 51
29 23 12 2 6 13 20 30 39 44 46 47 46 46 50 47 46 48 63 71 67 71 55 41 52 42 38 47 47 42 44 33 33 28 27 28 30 29 30 33 35 38 47
31 21 9 6 12 17 27 34 40 47 50 52 52 51 49 45 47 51 51 58 64 52 36 56 50 45 61 52 46 43 37 37 41 38 32 30 30 29 29 27 32 31 42
27 17 11 12 16 21 29 36 44 51 54 54 53 51 48 43 42 45 47 50 56 40 38 53 48 59 59 64 54 41 34 29 28 34 39 38 35 31 28 31 30 34 37
24 19 14 15 19 26 34 42 50 54 55 53 52 47 46 44 43 41 36 37 39 41 48 32 62 64 62 59 51 40 30 23 20 27 32 33 36 36 30 27 30 29 31
26 19 15 18 27 32 40 46 52 51 51 49 48 45 44 41 34 31 32 32 37 45 36 59 60 57 53 57 54 49 34 27 22 26 29 32 31 31 31 29 27 30 22
26 20 18 26 31 37 44 50 49 49 48 47 45 43 36 31 29 32 35 37 34 38 47 51 48 53 54 53 53 50 44 31 33 32 33 33 35 29 29 30 29 32 24
21 21 24 29 36 44 47 47 47 49 50 42 37 33 29 29 31 34 31 29 37 30 44 56 59 56 52 44 49 53 48 43 40 35 32 36 38 36 29 29 29 35 43
21 22 29 35 41 42 42 46 49 44 37 37 32 29 26 29 29 33 28 32 32 39 47 59 67 65 66 58 54 50 50 45 43 41 38 32 36 37 36 28 28 35 39
23 29 36 39 40 41 43 43 39 32 33 32 26 25 25 24 27 26 27 34 39 47 54 58 63 67 66 60 55 56 60 47 48 45 43 32 32 36 38 34 28 30 43
29 34 39 39 39 35 32 36 32 32 34 30 28 28 27 22 18 19 29 33 42 49 53 57 68 71 72 67 59 53 55 58 55 48 49 49 48 38 37 39 38 34 39
32 36 35 30 26 25 25 32 29 33 36 33 30 30 27 22 25 24 28 34 42 47 53 60 66 68 67 61 57 54 54 55 62 56 61 65 59 40 32 35 42 42 42
25 25 23 22 20 22 24 23 29 36 38 36 32 32 32 25 22 28 31 32 36 47 57 59 60 61 62 54 49 50 48 50 58 61 57 64 52 40 29 26 32 40 41
20 21 20 17 18 18 23 27 33 37 39 32 32 31 33 27 25 29 37 36 41 51 62 65 57 53 49 47 42 45 49 54 56 52 37 48 40 34 21 15 21 28 35
20 18 17 17 14 19 25 32 39 37 32 30 26 25 27 25 22 31 37 40 50 59 63 67 55 49 44 38 31 34 40 41 44 46 36 30 20 25 16 21 7 9 11
12 13 11 16 19 27 32 36 39 37 36 31 24 22 22 22 24 29 37 44 55 64 71 69 67 56 47 41 35 27 27 30 33 30 9 16 22 24 14 8 10 11 9
Wind_Direction_850mb
188 194 197 209 229 290 274 279 291 299 310 314 314 311 309 303 311 301 305 304 305 306 307 306 301 298 297 291 307 309 309 308 287 279 272 273 265 260 260 262 258 259 257
195 197 205 230 266 273 270 294 306 306 303 307 305 302 305 306 303 302 301 306 303 303 304 310 308 301 297 302 294 309 293 299 297 277 279 268 262 263 262 264 259 257 255
199 205 233 251 264 271 287 298 295 290 296 296 299 303 308 312 307 307 308 306 304 303 302 304 307 311 300 303 313 298 283 302 302 293 278 269 263 260 260 258 257 253 252
195 210 232 256 259 257 261 291 287 289 296 303 309 314 319 316 311 311 312 311 314 316 313 314 317 317 322 314 294 291 292 296 299 288 286 276 268 267 265 260 260 256 248
206 223 233 245 251 255 270 284 290 298 307 312 316 320 319 310 305 305 306 307 317 318 320 324 324 322 314 291 285 290 290 286 295 285 278 272 263 264 262 263 259 253 248
219 223 224 241 258 276 282 293 302 314 322 325 326 325 321 309 301 311 319 316 319 319 315 312 319 323 311 293 282 272 277 283 286 283 283 275 265 258 259 274 263 248 242
227 226 238 254 268 285 288 301 326 335 334 337 333 332 334 323 313 325 323 330 329 335 336 333 321 311 313 305 298 277 270 270 276 282 277 279 278 268 261 266 256 244 241
234 231 245 258 266 269 292 323 339 347 349 345 345 342 335 336 308 334 325 324 334 336 335 333 330 317 313 322 322 318 296 284 284 275 278 279 280 275 263 260 255 248 247
234 234 243 227 216 282 327 347 345 352 355 354 353 3 344 331 332 318 332 330 327 338 340 339 337 331 321 338 331 313 328 311 295 278 277 278 273 268 259 253 250 251 250
213 220 186 175 177 327 349 348 347 351 352 353 354 351 345 335 325 320 319 333 327 337 342 346 347 335 324 309 323 329 318 322 320 302 295 279 271 264 265 267 264 255 244
198 177 173 146 17 345 349 345 345 348 351 351 346 341 336 333 332 318 317 321 324 333 336 340 340 327 320 316 308 305 310 309 312 315 314 298 278 272 267 268 270 269 259
173 176 165 158 307 326 342 344 342 343 344 342 337 334 330 330 324 321 314 318 322 330 334 336 337 328 320 317 317 310 293 298 300 303 309 309 300 284 271 266 261 265 263
177 177 176 243 292 328 343 339 337 335 334 332 327 325 324 319 316 315 313 319 321 334 336 326 329 321 322 324 324 321 308 291 290 292 291 297 303 298 281 269 258 263 260
187 188 211 251 305 331 330 331 330 328 324 322 317 317 317 321 319 312 314 324 332 325 325 332 319 330 334 331 329 320 319 314 296 283 279 281 287 296 294 277 265 263 259
192 208 235 281 307 318 325 325 323 318 316 317 316 320 320 319 315 311 316 323 337 326 331 319 326 328 334 339 338 325 321 317 305 287 277 282 279 279 282 276 263 256 255
203 221 251 288 306 315 318 317 313 313 316 318 317 320 319 315 316 316 323 328 324 323 323 319 326 330 343 346 347 345 327 301 293 282 277 277 279 283 279 268 262 247 253
207 234 267 290 305 311 313 314 316 317 320 319 319 319 316 316 321 329 324 317 317 321 316 323 334 337 341 339 344 345 345 331 300 285 279 281 276 282 291 268 255 247 230
220 252 285 303 308 311 314 316 317 320 319 317 318 317 318 316 328 321 329 331 327 336 331 327 329 332 333 339 341 341 339 342 336 319 294 279 275 271 277 285 258 245 242
244 278 299 305 309 316 316 316 318 321 317 320 318 317 319 328 330 324 326 331 336 328 324 325 328 334 333 334 335 333 335 334 333 335 324 294 281 273 265 267 271 253 238
280 296 307 310 315 313 313 314 318 315 324 326 318 315 322 315 320 321 328 330 326 322 328 329 330 331 328 334 332 332 328 330 329 332 328 323 301 285 271 256 256 254 245
296 308 306 311 309 310 310 308 315 323 331 324 316 319 309 301 300 312 318 320 322 323 327 328 326 324 325 327 324 325 321 322 322 329 332 332 326 300 275 257 245 243 244
302 304 302 307 303 304 300 306 321 325 332 332 322 311 318 311 301 310 311 316 323 326 327 326 323 324 325 323 322 318 315 317 318 321 321 320 327 316 296 265 247 239 241
299 301 311 302 288 293 302 313 314 323 332 332 318 314 323 309 293 301 313 319 326 333 332 332 327 324 319 320 317 310 307 306 302 306 312 310 325 323 307 271 247 242 232
307 310 305 293 297 302 298 310 310 322 324 322 319 317 320 305 290 298 315 327 336 340 342 339 331 325 319 316 306 300 298 296 299 303 313 303 332 339 342 289 249 232 230
310 317 319 324 314 301 303 311 316 321 333 342 327 317 311 302 294 307 323 329 336 342 344 341 335 330 325 321 310 303 303 305 305 307 314 298 338 342 11 55 69 205 220
341 336 317 310 311 309 317 321 320 332 336 337 328 315 318 299 296 319 331 335 335 341 343 339 341 332 331 328 322 310 307 305 302 306 306 307 316 329 329 1 73 95 173